Weather History for Austin, MN

Change the Weather History Date:

Monday, July 8, 2013

  Actual Average Record
Temperature  
Mean Temperature 79 °F -  
Max Temperature 89 °F 77 °F 93 °F (2007)
Min Temperature 69 °F 59 °F 35 °F (2001)
Cooling Degree Days 14    
Growing Degree Days 29 (Base 50)    
Moisture  
Dew Point 69 °F    
Average Humidity 73    
Maximum Humidity 94    
Minimum Humidity 43    
Precipitation  
Precipitation 0.00 in - - ()
Sea Level Pressure  
Sea Level Pressure 29.96 in    
Wind  
Wind Speed 3 mph (North)    
Max Wind Speed 8 mph    
Max Gust Speed -    
Visibility 8 miles    
Events Rain , Thunderstorm    
Averages and records for this station are not official NWS values.
T = Trace of Precipitation, MM = Missing Value Source: NWS Daily Summary

Daily Weather History Graph

Daily Weather History Graph

Search for Another Location

Airport:

Trip Planner

Search our weather history database for the weather conditions in past years. The results will help you decide how hot, cold, wet, or windy it might be!

Date:

Astronomy

Jul. 08, 2013 Rise Set
Actual Time 5:38 AM CDT 8:54 PM CDT
Civil Twilight 5:03 AM CDT 9:30 PM CDT
Nautical Twilight 4:17 AM CDT 10:15 PM CDT
Astronomical Twilight 3:21 AM CDT 11:11 PM CDT
Moon 6:11 AM CDT (7/8) 8:53 PM CDT (7/8)
Length of Visible Light 16h 26m
Length of Day
15h 16m
New Moon, 0% of the Moon is Illuminated
Jul 8
New Moon
Jul 15
First Quarter
Jul 22
Full
Jul 29
Last Quarter
Aug 6
New

Hourly Weather History & Observations

Time (CDT) Temp. Heat Index Dew Point Humidity Pressure Visibility Wind Dir Wind Speed Gust Speed Precip Events Conditions
12:16 AM 73.4 °F - 69.8 °F 88% 29.98 in 7.0 mi Calm Calm - 0.05 in Rain , Thunderstorm Thunderstorms and Rain
12:36 AM 73.4 °F - 69.8 °F 88% 29.92 in 10.0 mi ESE 5.8 mph - 0.08 in Rain , Thunderstorm Light Thunderstorms and Rain
12:56 AM 73.4 °F - 69.8 °F 88% 29.92 in 10.0 mi SSE 5.8 mph - N/A   Scattered Clouds
1:16 AM 73.4 °F - 68.0 °F 83% 29.92 in 10.0 mi South 8.1 mph - N/A   Clear
1:36 AM 73.4 °F - 68.0 °F 83% 29.92 in 10.0 mi SW 8.1 mph - N/A   Clear
1:56 AM 73.4 °F - 68.0 °F 83% 29.92 in 10.0 mi SW 4.6 mph - N/A   Clear
2:16 AM 71.6 °F - 68.0 °F 88% 29.91 in 10.0 mi SW 3.5 mph - N/A   Clear
2:36 AM 71.6 °F - 68.0 °F 88% 29.90 in 10.0 mi Calm Calm - N/A   Clear
2:56 AM 71.6 °F - 68.0 °F 88% 29.90 in 7.0 mi WNW 4.6 mph - N/A   Clear
3:16 AM 71.6 °F - 68.0 °F 88% 29.90 in 10.0 mi West 5.8 mph - N/A   Clear
3:36 AM 71.6 °F - 68.0 °F 88% 29.91 in 7.0 mi NW 3.5 mph - N/A   Clear
3:56 AM 71.6 °F - 68.0 °F 88% 29.91 in 7.0 mi NNW 5.8 mph - N/A   Scattered Clouds
4:16 AM 71.6 °F - 68.0 °F 88% 29.92 in 7.0 mi NNW 3.5 mph - N/A   Mostly Cloudy
4:36 AM 69.8 °F - 66.2 °F 88% 29.92 in 5.0 mi Calm Calm - N/A   Scattered Clouds
4:55 AM 69.8 °F - 66.2 °F 88% 29.94 in 4.0 mi Calm Calm - N/A   Clear
5:16 AM 69.8 °F - 66.2 °F 88% 29.94 in 3.0 mi Calm Calm - N/A   Clear
5:37 AM 69.8 °F - 66.2 °F 88% 29.95 in 2.5 mi Calm Calm - N/A   Clear
5:56 AM 69.8 °F - 66.2 °F 88% 29.94 in 1.2 mi Calm Calm - N/A   Mist
6:16 AM 69.8 °F - 66.2 °F 88% 29.95 in 1.2 mi Calm Calm - N/A   Mist
6:37 AM 69.8 °F - 66.2 °F 88% 29.95 in 1.5 mi Calm Calm - N/A   Mist
6:56 AM 69.8 °F - 68.0 °F 94% 29.95 in 1.5 mi Calm Calm - N/A   Mist
7:16 AM 71.6 °F - 69.8 °F 94% 29.94 in 3.0 mi Calm Calm - N/A   Clear
7:36 AM 71.6 °F - 69.8 °F 94% 29.95 in 5.0 mi Calm Calm - N/A   Clear
7:56 AM 73.4 °F - 69.8 °F 88% 29.96 in 7.0 mi WNW 3.5 mph - N/A   Clear
8:16 AM 73.4 °F - 69.8 °F 88% 29.96 in 7.0 mi NNW 4.6 mph - N/A   Clear
8:36 AM 75.2 °F - 69.8 °F 83% 29.97 in 7.0 mi NW 5.8 mph - N/A   Clear
8:56 AM 77.0 °F - 69.8 °F 78% 29.98 in 10.0 mi North 6.9 mph - N/A   Clear
9:16 AM 78.8 °F - 69.8 °F 74% 29.98 in 10.0 mi North 3.5 mph - N/A   Clear
9:36 AM 78.8 °F - 69.8 °F 74% 29.98 in 10.0 mi NNE 5.8 mph - N/A   Clear
9:56 AM 80.6 °F 84.6 °F 71.6 °F 74% 29.99 in 10.0 mi Calm Calm - N/A   Scattered Clouds
10:16 AM 80.6 °F 84.6 °F 71.6 °F 74% 29.99 in 7.0 mi North 4.6 mph - N/A   Mostly Cloudy
10:36 AM 80.6 °F 84.6 °F 71.6 °F 74% 29.99 in 7.0 mi Calm Calm - N/A   Scattered Clouds
10:56 AM 82.4 °F 87.2 °F 71.6 °F 70% 29.99 in 7.0 mi NNW 5.8 mph - N/A   Scattered Clouds
11:16 AM 82.4 °F 87.2 °F 71.6 °F 70% 29.99 in 7.0 mi NNE 5.8 mph - N/A   Mostly Cloudy
11:36 AM 80.6 °F 84.6 °F 71.6 °F 74% 29.99 in 7.0 mi North 3.5 mph - N/A   Mostly Cloudy
11:56 AM 80.6 °F 84.6 °F 71.6 °F 74% 29.99 in 5.0 mi NNW 3.5 mph - N/A   Haze
12:16 PM 80.6 °F 85.4 °F 73.4 °F 79% 29.99 in 7.0 mi North 3.5 mph - N/A   Clear
12:36 PM 82.4 °F 87.2 °F 71.6 °F 70% 29.99 in 7.0 mi North 4.6 mph - N/A   Clear
12:56 PM 84.2 °F 89.6 °F 71.6 °F 66% 29.98 in 10.0 mi North 4.6 mph - N/A   Clear
1:16 PM 84.2 °F 89.6 °F 71.6 °F 66% 29.98 in 10.0 mi North 3.5 mph - N/A   Clear
1:36 PM 84.2 °F 89.6 °F 71.6 °F 66% 29.98 in 10.0 mi NNW 3.5 mph - N/A   Clear
1:56 PM 86.0 °F 90.4 °F 69.8 °F 58% 29.98 in 10.0 mi NNW 8.1 mph - N/A   Clear
2:16 PM 87.8 °F 93.8 °F 71.6 °F 58% 29.98 in 10.0 mi Calm Calm - N/A   Scattered Clouds
2:36 PM 87.8 °F 92.6 °F 69.8 °F 55% 29.98 in 10.0 mi Calm Calm - N/A   Scattered Clouds
2:56 PM 87.8 °F 92.6 °F 69.8 °F 55% 29.98 in 10.0 mi NNE 3.5 mph - N/A   Scattered Clouds
3:16 PM 89.6 °F 94.7 °F 69.8 °F 52% 29.98 in 10.0 mi Calm Calm - N/A   Scattered Clouds
3:36 PM 87.8 °F 92.6 °F 69.8 °F 55% 29.97 in 10.0 mi NNW 4.6 mph - N/A   Clear
3:56 PM 89.6 °F 94.7 °F 69.8 °F 52% 29.97 in 10.0 mi NNW 3.5 mph - N/A   Scattered Clouds
4:16 PM 89.6 °F 94.7 °F 69.8 °F 52% 29.97 in 10.0 mi NNE 3.5 mph - N/A   Scattered Clouds
4:36 PM 89.6 °F 92.2 °F 66.2 °F 46% 29.97 in 10.0 mi NW 3.5 mph - N/A   Scattered Clouds
4:56 PM 89.6 °F 92.2 °F 66.2 °F 46% 29.97 in 10.0 mi NW 4.6 mph - N/A   Clear
5:16 PM 89.6 °F 92.2 °F 66.2 °F 46% 29.97 in 10.0 mi NNW 4.6 mph - N/A   Clear
5:36 PM 87.8 °F 89.4 °F 64.4 °F 46% 29.97 in 10.0 mi Calm Calm - N/A   Clear
5:56 PM 89.6 °F 91.1 °F 64.4 °F 43% 29.97 in 10.0 mi Calm Calm - N/A   Clear
6:16 PM 87.8 °F 89.4 °F 64.4 °F 46% 29.96 in 10.0 mi Calm Calm - N/A   Clear
6:36 PM 87.8 °F 89.4 °F 64.4 °F 46% 29.97 in 10.0 mi Calm Calm - N/A   Clear
6:56 PM 87.8 °F 90.4 °F 66.2 °F 49% 29.97 in 10.0 mi Calm Calm - N/A   Clear
7:16 PM 89.6 °F 92.2 °F 66.2 °F 46% 29.97 in 10.0 mi Calm Calm - N/A   Clear
7:36 PM 87.8 °F 90.4 °F 66.2 °F 49% 29.97 in 10.0 mi Calm Calm - N/A   Clear
7:56 PM 87.8 °F 90.4 °F 66.2 °F 49% 29.97 in 10.0 mi Calm Calm - N/A   Clear
8:16 PM 84.2 °F 89.6 °F 71.6 °F 66% 29.96 in 10.0 mi Calm Calm - N/A   Clear
8:36 PM 80.6 °F 84.6 °F 71.6 °F 74% 29.96 in 10.0 mi Calm Calm - N/A   Clear
8:56 PM 80.6 °F 83.9 °F 69.8 °F 70% 29.96 in 10.0 mi NNE 3.5 mph - N/A   Clear
9:16 PM 80.6 °F 83.9 °F 69.8 °F 70% 29.96 in 10.0 mi ENE 3.5 mph - N/A   Clear
9:36 PM 80.6 °F 84.6 °F 71.6 °F 74% 29.97 in 10.0 mi ENE 3.5 mph - N/A   Clear
9:56 PM 78.8 °F - 71.6 °F 78% 29.98 in 10.0 mi Calm Calm - N/A   Clear
10:16 PM 78.8 °F - 71.6 °F 78% 29.98 in 10.0 mi ENE 4.6 mph - N/A   Clear
10:36 PM 78.8 °F - 71.6 °F 78% 29.99 in 10.0 mi East 4.6 mph - N/A   Clear
10:56 PM 78.8 °F - 71.6 °F 78% 29.99 in 10.0 mi ESE 4.6 mph - N/A   Scattered Clouds
11:16 PM 77.0 °F - 71.6 °F 83% 29.99 in 10.0 mi ESE 3.5 mph - N/A   Scattered Clouds
11:36 PM 77.0 °F - 71.6 °F 83% 29.99 in 7.0 mi ESE 4.6 mph - N/A   Clear
11:56 PM 77.0 °F - 71.6 °F 83% 29.99 in 10.0 mi ESE 4.6 mph - N/A   Clear